Weather History for Drummond Island, MI

Change the Weather History Date:

Friday, June 14, 2013

  Actual Average (KCIU) Record (KCIU)
Temperature  
Mean Temperature 59 °F -  
Max Temperature 68 °F 72 °F 89 °F (2001)
Min Temperature 50 °F 46 °F 30 °F (1978)
Degree Days  
Heating Degree Days 6    
Growing Degree Days 9 (Base 50)    
Moisture  
Dew Point 40 °F    
Average Humidity 52    
Maximum Humidity 73    
Minimum Humidity 27    
Precipitation  
Precipitation 0.00 in - - ()
Sea Level Pressure  
Sea Level Pressure 30.07 in    
Wind  
Wind Speed 5 mph (NNW)    
Max Wind Speed 10 mph    
Max Gust Speed -    
Visibility 10 miles    
Events      
Averages and records for this station are not official NWS values.
T = Trace of Precipitation, MM = Missing Value Source: NWS Daily Summary

Daily Weather History Graph

Daily Weather History Graph

Search for Another Location

Airport:

Trip Planner

Search our weather history database for the weather conditions in past years. The results will help you decide how hot, cold, wet, or windy it might be!

Date:

Astronomy

Jun. 14, 2013 Rise Set
Actual Time 5:43 AM EDT 9:27 PM EDT
Civil Twilight 5:05 AM EDT 10:05 PM EDT
Nautical Twilight 4:13 AM EDT 10:57 PM EDT
Astronomical Twilight 3:01 AM EDT 12:09 AM EDT
Moon 11:33 AM EDT (6/14) 12:18 AM EDT (6/14)
Length of Visible Light 17h 00m
Length of Day
15h 43m
Waxing Crescent, 30% of the Moon is Illuminated
Jun 14
Waxing Crescent
Jun 16
First Quarter
Jun 23
Full
Jun 30
Last Quarter
Jul 8
New

Hourly Weather History & Observations

Time (EDT) Temp. Dew Point Humidity Pressure Visibility Wind Dir Wind Speed Gust Speed Precip Events Conditions
12:16 AM 59.4 °F 47.3 °F 64% 30.01 in 10.0 mi North 6.9 mph - N/A   Clear
12:35 AM 58.5 °F 46.9 °F 66% 30.02 in 10.0 mi North 3.5 mph - N/A   Clear
12:56 AM 57.9 °F 46.6 °F 66% 30.03 in 10.0 mi North 4.6 mph - N/A   Clear
1:16 AM 57.6 °F 46.9 °F 68% 30.03 in 10.0 mi North 5.8 mph - N/A   Clear
1:35 AM 57.4 °F 47.5 °F 70% 30.04 in 10.0 mi North 6.9 mph - N/A   Clear
1:56 AM 56.8 °F 46.0 °F 67% 30.04 in 10.0 mi NNE 3.5 mph - N/A   Clear
2:16 AM 55.8 °F 45.5 °F 68% 30.04 in 10.0 mi NNE 3.5 mph - N/A   Clear
2:36 AM 55.8 °F 45.0 °F 67% 30.04 in 10.0 mi North 4.6 mph - N/A   Clear
2:56 AM 55.4 °F 43.3 °F 64% 30.04 in 10.0 mi NNE 5.8 mph - N/A   Clear
3:16 AM 54.9 °F 41.9 °F 62% 30.04 in 10.0 mi North 6.9 mph - N/A   Clear
3:36 AM 54.3 °F 41.4 °F 62% 30.03 in 10.0 mi NNE 5.8 mph - N/A   Clear
3:56 AM 54.5 °F 39.9 °F 58% 30.04 in 10.0 mi North 6.9 mph - N/A   Clear
4:16 AM 53.6 °F 38.1 °F 56% 30.05 in 10.0 mi North 4.6 mph - N/A   Clear
4:36 AM 52.7 °F 39.9 °F 62% 30.05 in 10.0 mi North 6.9 mph - N/A   Clear
4:56 AM 52.2 °F 38.7 °F 60% 30.05 in 10.0 mi NNE 5.8 mph - N/A   Clear
5:16 AM 51.6 °F 38.5 °F 61% 30.06 in 10.0 mi North 8.1 mph - N/A   Clear
5:36 AM 51.3 °F 38.1 °F 61% 30.07 in 10.0 mi North 10.4 mph - N/A   Clear
5:56 AM 50.5 °F 37.6 °F 61% 30.07 in 10.0 mi North 6.9 mph - N/A   Clear
6:16 AM 50.0 °F 37.6 °F 62% 30.08 in 10.0 mi North 4.6 mph - N/A   Clear
6:36 AM 50.0 °F 38.1 °F 64% 30.08 in 10.0 mi NNE 3.5 mph - N/A   Clear
6:55 AM 50.4 °F 37.9 °F 62% 30.08 in 10.0 mi North 3.5 mph - N/A   Clear
7:16 AM 50.9 °F 38.3 °F 62% 30.08 in 10.0 mi Calm Calm - N/A   Clear
7:36 AM 51.4 °F 37.9 °F 60% 30.09 in 10.0 mi NNE 3.5 mph - N/A   Clear
7:55 AM 52.0 °F 37.8 °F 58% 30.09 in 10.0 mi NNE 5.8 mph - N/A   Clear
8:16 AM 52.0 °F 37.0 °F 57% 30.09 in 10.0 mi NNE 6.9 mph - N/A   Clear
8:36 AM 52.9 °F 38.5 °F 58% 30.10 in 10.0 mi NNE 3.5 mph - N/A   Clear
8:56 AM 53.8 °F 37.6 °F 54% 30.11 in 10.0 mi NE 4.6 mph - N/A   Clear
9:16 AM 54.5 °F 38.3 °F 54% 30.12 in 10.0 mi North 6.9 mph - N/A   Clear
9:36 AM 55.6 °F 39.4 °F 55% 30.13 in 10.0 mi NNW 5.8 mph - N/A   Clear
9:56 AM 55.6 °F 40.1 °F 56% 30.14 in 10.0 mi NNW 3.5 mph - N/A   Clear
10:16 AM 55.8 °F 40.5 °F 56% 30.14 in 10.0 mi NNW 4.6 mph - N/A   Clear
10:36 AM 55.8 °F 39.2 °F 54% 30.15 in 10.0 mi North 5.8 mph - N/A   Clear
10:56 AM 57.2 °F 39.2 °F 51% 30.14 in 10.0 mi NNE 4.6 mph - N/A   Clear
11:16 AM 58.1 °F 39.6 °F 50% 30.15 in 10.0 mi North 6.9 mph - N/A   Clear
11:36 AM 59.4 °F 41.4 °F 51% 30.14 in 10.0 mi Calm Calm - N/A   Clear
11:56 AM 59.5 °F 39.0 °F 47% 30.14 in 10.0 mi NNW 3.5 mph - N/A   Clear
12:15 PM 60.8 °F 40.8 °F 48% 30.13 in 10.0 mi North 4.6 mph - N/A   Clear
12:36 PM 61.0 °F 40.1 °F 46% 30.13 in 10.0 mi NNW 4.6 mph - N/A   Clear
12:56 PM 63.3 °F 40.1 °F 43% 30.12 in 10.0 mi Calm Calm - N/A   Clear
1:16 PM 63.5 °F 41.0 °F 44% 30.12 in 10.0 mi NNW 4.6 mph - N/A   Clear
1:36 PM 64.8 °F 42.3 °F 44% 30.11 in 10.0 mi NNW 3.5 mph - N/A   Clear
1:56 PM 65.5 °F 40.6 °F 40% 30.11 in 10.0 mi NNW 4.6 mph - N/A   Clear
2:16 PM 66.0 °F 42.6 °F 43% 30.10 in 10.0 mi WNW 3.5 mph - N/A   Clear
2:36 PM 66.9 °F 40.5 °F 38% 30.10 in 10.0 mi NNW 3.5 mph - N/A   Clear
2:56 PM 67.5 °F 41.0 °F 38% 30.09 in 10.0 mi WSW 6.9 mph - N/A   Clear
3:16 PM 67.6 °F 33.3 °F 28% 30.09 in 10.0 mi West 3.5 mph - N/A   Clear
3:36 PM 68.2 °F 33.3 °F 27% 30.08 in 10.0 mi Calm Calm - N/A   Clear
3:56 PM 68.7 °F 38.3 °F 33% 30.07 in 10.0 mi Calm Calm - N/A   Clear
4:16 PM 67.6 °F 37.9 °F 34% 30.06 in 10.0 mi SSW 3.5 mph - N/A   Clear
4:36 PM 68.0 °F 41.2 °F 38% 30.06 in 10.0 mi WSW 4.6 mph - N/A   Clear
4:55 PM 67.1 °F 40.1 °F 37% 30.05 in 10.0 mi SW 6.9 mph - N/A   Clear
5:16 PM 66.4 °F 37.9 °F 35% 30.06 in 10.0 mi SW 8.1 mph - N/A   Clear
5:36 PM 65.8 °F 37.0 °F 35% 30.04 in 10.0 mi SSW 8.1 mph - N/A   Clear
5:56 PM 65.5 °F 36.1 °F 34% 30.04 in 10.0 mi South 9.2 mph - N/A   Clear
6:16 PM 65.3 °F 36.7 °F 35% 30.04 in 10.0 mi South 6.9 mph - N/A   Clear
6:36 PM 64.4 °F 36.0 °F 35% 30.04 in 10.0 mi SSW 8.1 mph - N/A   Clear
6:56 PM 63.7 °F 33.4 °F 32% 30.04 in 10.0 mi SSW 9.2 mph - N/A   Clear
7:16 PM 63.5 °F 34.2 °F 33% 30.03 in 10.0 mi SW 8.1 mph - N/A   Clear
7:36 PM 62.6 °F 35.2 °F 36% 30.03 in 10.0 mi SSW 8.1 mph - N/A   Clear
7:56 PM 62.2 °F 37.2 °F 39% 30.03 in 10.0 mi SW 3.5 mph - N/A   Clear
8:16 PM 60.8 °F 35.6 °F 39% 30.03 in 10.0 mi SSW 5.8 mph - N/A   Clear
8:36 PM 59.4 °F 35.1 °F 40% 30.03 in 10.0 mi SSW 3.5 mph - N/A   Clear
8:56 PM 57.2 °F 37.2 °F 47% 30.03 in 10.0 mi Calm Calm - N/A   Clear
9:16 PM 55.6 °F 38.1 °F 52% 30.03 in 10.0 mi Calm Calm - N/A   Clear
9:36 PM 55.8 °F 38.5 °F 52% 30.04 in 10.0 mi Calm Calm - N/A   Clear
9:56 PM 55.4 °F 39.2 °F 54% 30.04 in 10.0 mi West 3.5 mph - N/A   Clear
10:16 PM 55.2 °F 41.2 °F 59% 30.04 in 10.0 mi Calm Calm - N/A   Clear
10:36 PM 54.5 °F 41.9 °F 62% 30.05 in 10.0 mi West 3.5 mph - N/A   Clear
10:56 PM 50.4 °F 41.9 °F 73% 30.04 in 10.0 mi Calm Calm - N/A   Clear
11:16 PM 51.4 °F 42.1 °F 70% 30.04 in 10.0 mi Calm Calm - N/A   Clear
11:36 PM 51.8 °F 42.8 °F 71% 30.04 in 10.0 mi WNW 3.5 mph - N/A   Clear
11:55 PM 53.2 °F 43.9 °F 71% 30.04 in 10.0 mi NW 3.5 mph - N/A   Clear